| time (UTC) | temp F | wind direction | speed MPH | gust MPH | rain 1hr in | rain 24hr in | rain mn in | humidity % | barometer mb |
| 20260906181910 | 72 | 159 | 0.0 | 2.0 | 0.00 | 0.00 | 0.00 | 63 | 1025.2 |
| 20260906180410 | 72 | 159 | 1.0 | 2.0 | 0.00 | 0.00 | 0.00 | 63 | 1025.0 |
| 20260906174911 | 75 | 159 | 0.0 | 1.0 | 0.00 | 0.00 | 0.00 | 58 | 1024.8 |
| 20260906173411 | 76 | 162 | 2.0 | 4.0 | 0.00 | 0.00 | 0.00 | 55 | 1024.6 |
| 20260906131910 | 82 | 67 | 7.0 | 9.0 | 0.00 | 0.00 | 0.00 | 48 | 1025.3 |
| 20260906130410 | 82 | 63 | 2.0 | 4.0 | 0.00 | 0.00 | 0.00 | 49 | 1025.5 |
| 20260906124910 | 82 | 85 | 2.0 | 10.0 | 0.00 | 0.00 | 0.00 | 50 | 1025.6 |
| 20260906123410 | 81 | 36 | 1.0 | 5.0 | 0.00 | 0.00 | 0.00 | 51 | 1025.6 |
| 20260906121910 | 81 | 30 | 3.0 | 8.0 | 0.00 | 0.00 | 0.00 | 51 | 1025.8 |
| 20260906120410 | 81 | 50 | 3.0 | 6.0 | 0.00 | 0.00 | 0.00 | 53 | 1026.0 |
| 20260906114911 | 80 | 74 | 1.0 | 6.0 | 0.00 | 0.00 | 0.00 | 53 | 1026.0 |
| 20260906113411 | 79 | 69 | 2.0 | 5.0 | 0.00 | 0.00 | 0.00 | 55 | 1026.2 |
| 20260906111911 | 78 | 69 | 2.0 | 6.0 | 0.00 | 0.00 | 0.00 | 55 | 1026.1 |
| 20260906110410 | 77 | 85 | 1.0 | 5.0 | 0.00 | 0.00 | 0.00 | 58 | 1026.2 |
| 20260906104910 | 77 | 48 | 4.0 | 7.0 | 0.00 | 0.00 | 0.00 | 60 | 1026.2 |
| 20260906103410 | 76 | 68 | 2.0 | 6.0 | 0.00 | 0.00 | 0.00 | 62 | 1026.5 |
| 20260906101910 | 75 | 61 | 4.0 | 6.0 | 0.00 | 0.00 | 0.00 | 63 | 1026.5 |
| 20260906100410 | 75 | 50 | 4.0 | 7.0 | 0.00 | 0.00 | 0.00 | 66 | 1026.7 |
| 20260906094910 | 74 | 23 | 1.0 | 6.0 | 0.00 | 0.00 | 0.00 | 66 | 1026.8 |
| 20260906093410 | 73 | 49 | 3.0 | 6.0 | 0.00 | 0.00 | 0.00 | 67 | 1026.8 |
| 20260906091910 | 73 | 90 | 4.0 | 7.0 | 0.00 | 0.00 | 0.00 | 68 | 1027.0 |
| 20260906090409 | 72 | 66 | 4.0 | 7.0 | 0.00 | 0.00 | 0.00 | 71 | 1027.2 |
| 20260906083410 | 70 | 94 | 3.0 | 8.0 | 0.00 | 0.00 | 0.00 | 75 | 1027.5 |
| 20260906080410 | 69 | 68 | 3.0 | 7.0 | 0.00 | 0.00 | 0.00 | 82 | 1027.6 |
| 20260906074910 | 68 | 54 | 3.0 | 6.0 | 0.00 | 0.00 | 0.00 | 85 | 1027.6 |
| 20260906073410 | 67 | 57 | 3.0 | 6.0 | 0.00 | 0.00 | 0.00 | 87 | 1027.5 |
| 20260906071910 | 66 | 39 | 0.0 | 4.0 | 0.00 | 0.00 | 0.00 | 89 | 1027.3 |
| 20260906070409 | 65 | 270 | 0.0 | 2.0 | 0.00 | 0.00 | 0.00 | 91 | 1027.1 |
| 20260906064912 | 64 | 269 | 0.0 | 3.0 | 0.00 | 0.00 | 0.00 | 92 | 1027.0 |
| 20260906063412 | 64 | 261 | 1.0 | 2.0 | 0.00 | 0.00 | 0.00 | 92 | 1026.9 |
| 20260906061912 | 63 | 257 | 0.0 | 0.0 | 0.00 | 0.00 | 0.00 | 93 | 1026.8 |
| 20260906060412 | 62 | 248 | 0.0 | 0.0 | 0.00 | 0.00 | 0.00 | 94 | 1026.9 |
| 20260906054912 | 62 | 248 | 0.0 | 0.0 | 0.00 | 0.00 | 0.00 | 94 | 1026.6 |
| 20260906053412 | 61 | 248 | 0.0 | 0.0 | 0.00 | 0.00 | 0.00 | 94 | 1026.5 |
| 20260906051912 | 60 | 248 | 0.0 | 0.0 | 0.00 | 0.00 | 0.00 | 94 | 1026.3 |
| 20260906050411 | 60 | 248 | 0.0 | 0.0 | 0.00 | 0.00 | 0.00 | 94 | 1026.1 |
| 20260906044911 | 61 | 248 | 0.0 | 0.0 | 0.00 | 0.00 | 0.00 | 94 | 1026.1 |
| 20260906043411 | 61 | 248 | 0.0 | 0.0 | 0.00 | 0.00 | 0.00 | 94 | 1026.1 |
| 20260906041911 | 60 | 248 | 0.0 | 0.0 | 0.00 | 0.00 | 0.00 | 93 | 1025.9 |
| 20260906040411 | 60 | 248 | 0.0 | 0.0 | 0.00 | 0.00 | 0.00 | 93 | 1025.5 |
| 20260906033412 | 61 | 248 | 0.0 | 0.0 | 0.00 | 0.00 | 0.00 | 93 | 1025.3 |
| 20260906031912 | 61 | 248 | 0.0 | 0.0 | 0.00 | 0.00 | 0.00 | 92 | 1025.4 |
| 20260906030411 | 61 | 248 | 0.0 | 0.0 | 0.00 | 0.00 | 0.00 | 92 | 1025.1 |
| 20260906024911 | 61 | 248 | 0.0 | 0.0 | 0.00 | 0.00 | 0.00 | 92 | 1025.1 |
| 20260906023411 | 62 | 248 | 0.0 | 0.0 | 0.00 | 0.00 | 0.00 | 91 | 1024.9 |
| 20260906021911 | 62 | 248 | 0.0 | 0.0 | 0.00 | 0.00 | 0.00 | 91 | 1024.7 |
| 20260906020411 | 62 | 248 | 0.0 | 0.0 | 0.00 | 0.00 | 0.00 | 91 | 1024.9 |
| 20260906014911 | 63 | 248 | 0.0 | 0.0 | 0.00 | 0.00 | 0.00 | 91 | 1024.6 |
| 20260906013411 | 62 | 248 | 0.0 | 0.0 | 0.00 | 0.00 | 0.00 | 91 | 1024.7 |
| 20260906011911 | 63 | 248 | 0.0 | 0.0 | 0.00 | 0.00 | 0.00 | 90 | 1024.7 |
| 20260906010411 | 62 | 248 | 0.0 | 0.0 | 0.00 | 0.00 | 0.00 | 90 | 1024.4 |
| 20260906004911 | 62 | 248 | 0.0 | 0.0 | 0.00 | 0.00 | 0.00 | 90 | 1024.4 |
| 20260906003411 | 63 | 248 | 0.0 | 0.0 | 0.00 | 0.00 | 0.00 | 90 | 1024.3 |
| 20260906001910 | 63 | 248 | 0.0 | 0.0 | 0.00 | 0.00 | 0.00 | 90 | 1024.2 |
| 20260906000411 | 63 | 248 | 0.0 | 0.0 | 0.00 | 0.00 | 0.00 | 89 | 1024.3 |
| 20260905234912 | 63 | 248 | 0.0 | 0.0 | 0.00 | 0.00 | 0.00 | 89 | 1024.2 |
| 20260905233411 | 63 | 248 | 0.0 | 0.0 | 0.00 | 0.00 | 0.00 | 88 | 1024.1 |
| 20260905231912 | 63 | 248 | 0.0 | 0.0 | 0.00 | 0.00 | 0.00 | 87 | 1024.0 |
| 20260905230411 | 63 | 248 | 0.0 | 0.0 | 0.00 | 0.00 | 0.00 | 89 | 1023.9 |
| 20260905224911 | 63 | 248 | 0.0 | 0.0 | 0.00 | 0.00 | 0.00 | 89 | 1023.8 |
| 20260905223411 | 64 | 248 | 0.0 | 0.0 | 0.00 | 0.00 | 0.00 | 88 | 1023.8 |
| 20260905221911 | 64 | 248 | 0.0 | 0.0 | 0.00 | 0.00 | 0.00 | 88 | 1023.8 |
| 20260905220411 | 64 | 248 | 0.0 | 0.0 | 0.00 | 0.00 | 0.00 | 88 | 1023.7 |
| 20260905214912 | 64 | 248 | 0.0 | 0.0 | 0.00 | 0.00 | 0.00 | 87 | 1024.0 |
| 20260905213412 | 64 | 247 | 0.0 | 0.0 | 0.00 | 0.00 | 0.00 | 86 | 1023.7 |
| 20260905211912 | 64 | 247 | 0.0 | 0.0 | 0.00 | 0.00 | 0.00 | 85 | 1023.8 |
| 20260905210412 | 65 | 247 | 0.0 | 0.0 | 0.00 | 0.00 | 0.00 | 86 | 1023.8 |
| 20260905204911 | 65 | 247 | 0.0 | 0.0 | 0.00 | 0.00 | 0.00 | 89 | 1023.9 |
| 20260905203411 | 65 | 247 | 0.0 | 0.0 | 0.00 | 0.00 | 0.00 | 88 | 1023.9 |
| 20260905201911 | 66 | 247 | 1.0 | 2.0 | 0.00 | 0.00 | 0.00 | 89 | 1023.7 |
| 20260905200411 | 66 | 247 | 0.0 | 0.0 | 0.00 | 0.00 | 0.00 | 87 | 1023.4 |
| 20260905194911 | 66 | 247 | 0.0 | 3.0 | 0.00 | 0.00 | 0.00 | 88 | 1023.3 |
| 20260905193411 | 66 | 254 | 2.0 | 5.0 | 0.00 | 0.00 | 0.00 | 88 | 1023.3 |
| 20260905191911 | 66 | 246 | 2.0 | 2.0 | 0.00 | 0.00 | 0.00 | 86 | 1022.7 |
| 20260905190411 | 67 | 245 | 1.0 | 4.0 | 0.00 | 0.00 | 0.00 | 86 | 1022.6 |
| 20260905184911 | 67 | 244 | 0.0 | 2.0 | 0.00 | 0.00 | 0.00 | 85 | 1022.3 |
| 20260905183410 | 68 | 244 | 0.0 | 4.0 | 0.00 | 0.00 | 0.00 | 85 | 1022.1 |